Flag for U.S.A. Weather past 2 weeks in Portland, Maine, U.S.A.

Now
75 °F

Passing clouds.


Feels Like: 77 °F
Forecast: 66 / 78 °F
Wind: 9 mph from South

Location: Portland - Portland International Jetport

Current Time: Jul 22, 2014 at 8:20:15 PM

Latest Report: Jul 22, 2014 at 7:51 PM


Visibility: 10 mi

Pressure: 29.98 "Hg

Humidity: 71%

Dew point: 65 °F

Location of PortlandLocation

Historic Weather in Portland — Graph

°F

Portland temperature yesterday

Maximum temperature yesterday: 76 °F (at 2:51 PM)
Minimum temperature yesterday: 55 °F (at 4:51 AM)
Average temperature yesterday: 65 °F

Past Weeks' High & Low Weather Summary

 TemperatureHumidityPressure
High84 °F (Jul 9, 12:51 PM)100% (Jul 16, 12:49 AM)30.28 "Hg (Jul 16, 12:49 AM)
Low55 °F (Jul 21, 4:51 AM)41% (Jul 10, 5:51 PM)29.62 "Hg (Jul 9, 2:51 AM)
Average69 °F75%30.00 "Hg
* Reported Jul 7 12:51 PM — Jul 22 12:51 PM, Portland, Weather by CustomWeather, © 2014

Note: Actual official high and low records may vary slightly from our data, if they occured in-between our weather recording intervals... More about our weather records

Advertising

Portland weather history for previous 24 hours

 ConditionsComfort  
Time TempWeatherWind HumidityBarometerVisibility
12:51 PM
Jul 22
79 °FPassing clouds.12 mph65%30.06 "Hg10 mi
11:51 AM81 °FPassing clouds.7 mph62%30.09 "Hg10 mi
10:51 AM80 °FPassing clouds.No wind58%30.11 "Hg10 mi
9:51 AM75 °FSunny.5 mph66%30.11 "Hg10 mi
8:51 AM71 °FSunny.5 mph73%30.11 "Hg10 mi
7:51 AM67 °FPassing clouds.6 mph79%30.13 "Hg10 mi
6:51 AM62 °FSunny.5 mph90%30.13 "Hg10 mi
5:51 AM60 °FPassing clouds.No wind93%30.13 "Hg10 mi
4:51 AM60 °FPassing clouds.5 mph90%30.13 "Hg10 mi
3:51 AM60 °FClear.3 mph93%30.12 "Hg10 mi
2:51 AM61 °FClear.5 mph90%30.13 "Hg10 mi
1:51 AM61 °FClear.3 mph90%30.14 "Hg10 mi
12:51 AM62 °FClear.No wind90%30.15 "Hg10 mi
11:51 PM
Jul 21
62 °FClear.No wind90%30.16 "Hg10 mi
10:51 PM63 °FClear.No wind90%30.16 "Hg10 mi
9:51 PM64 °FClear.No wind90%30.17 "Hg10 mi
8:51 PM65 °FPassing clouds.5 mph85%30.16 "Hg10 mi
Weather by CustomWeather, © 2014

See weather overviewHow to use our weather pages